IZ4UFQ-10 Weather Reports


Display with metric or nautical units.
time (UTC)temp
F
wind
direction
speed
MPH
gust
MPH
rain 1hr
in
rain 24hr
in
rain mn
in
humidity
%
barometer
mb
20260504151012 76 176 0.0 0.0 0.00 0.00 0.00 31 1014.9
20260504150512 76 177 0.0 0.0 0.00 0.00 0.00 30 1015.0
20260504141008 77 173 0.0 0.0 0.00 0.00 0.00 29 1015.2
20260504140508 78 189 0.0 0.0 0.00 0.00 0.00 27 1015.2
20260504130505 77 242 0.0 0.0 0.00 0.00 0.00 30 1015.8
20260504110458 76 328 0.0 0.0 0.00 0.00 0.00 34 1016.6
20260504100454 74 193 0.0 0.0 0.00 0.00 0.00 39 1017.2
20260504081948 71 247 0.0 0.0 0.00 0.00 0.00 42 1017.5
20260504081448 70 246 0.0 0.0 0.00 0.00 0.00 43 1017.6
20260504080948 70 233 0.0 0.0 0.00 0.00 0.00 43 1017.6
20260504080447 70 239 0.0 0.0 0.00 0.00 0.00 43 1017.5
20260504050437 62 210 0.0 0.0 0.00 0.00 0.00 44 1016.5
20260504045937 62 209 0.0 0.0 0.00 0.00 0.00 44 1016.5
20260504045436 62 205 0.0 0.0 0.00 0.00 0.00 43 1016.5
20260504044936 62 209 0.0 0.0 0.00 0.00 0.00 43 1016.5
20260504044436 62 197 0.0 0.0 0.00 0.00 0.00 43 1016.4
20260504043936 62 212 0.0 0.0 0.00 0.00 0.00 43 1016.4
20260504043435 62 208 0.0 0.0 0.00 0.00 0.00 43 1016.4
20260504042935 62 159 0.0 0.0 0.00 0.00 0.00 43 1016.3
20260504042435 61 197 0.0 0.0 0.00 0.00 0.00 44 1016.3
20260504041934 61 207 0.0 0.0 0.00 0.00 0.00 44 1016.2
20260504041434 60 194 0.0 0.0 0.00 0.00 0.00 46 1016.2
20260504040934 59 221 0.0 0.0 0.00 0.00 0.00 47 1016.1
20260504040434 59 189 0.0 0.0 0.00 0.00 0.00 49 1016.2
20260504035933 59 235 0.0 0.0 0.00 0.00 0.00 49 1016.2
20260504035433 59 235 0.0 0.0 0.00 0.00 0.00 49 1016.3
20260504034933 59 235 0.0 0.0 0.00 0.00 0.00 49 1016.2
20260504034432 59 235 0.0 0.0 0.00 0.00 0.00 48 1016.2
20260504033932 60 235 0.0 0.0 0.00 0.00 0.00 48 1016.3
20260504033432 60 235 0.0 0.0 0.00 0.00 0.00 47 1016.3
20260504032932 60 235 0.0 0.0 0.00 0.00 0.00 46 1016.3
20260504032431 60 235 0.0 0.0 0.00 0.00 0.00 46 1016.3
20260504031931 60 235 0.0 0.0 0.00 0.00 0.00 46 1016.3
20260504031431 60 235 0.0 0.0 0.00 0.00 0.00 46 1016.3
20260504030930 61 235 0.0 0.0 0.00 0.00 0.00 45 1016.3
20260504030430 61 233 0.0 0.0 0.00 0.00 0.00 45 1016.3
20260504025930 61 220 0.0 0.0 0.00 0.00 0.00 44 1016.3
20260504025430 61 231 0.0 0.0 0.00 0.00 0.00 44 1016.3
20260504024929 61 220 0.0 0.0 0.00 0.00 0.00 44 1016.4
20260504024429 61 238 0.0 0.0 0.00 0.00 0.00 44 1016.4
20260504023929 62 204 0.0 0.0 0.00 0.00 0.00 43 1016.4
20260504023428 62 222 0.0 0.0 0.00 0.00 0.00 43 1016.5
20260504022928 61 197 0.0 0.0 0.00 0.00 0.00 43 1016.5
20260504022428 61 212 0.0 0.0 0.00 0.00 0.00 44 1016.5
20260504021927 61 226 0.0 0.0 0.00 0.00 0.00 44 1016.6
20260504021427 61 238 0.0 0.0 0.00 0.00 0.00 46 1016.6
20260504020927 61 240 0.0 0.0 0.00 0.00 0.00 45 1016.7
20260504020427 61 213 0.0 0.0 0.00 0.00 0.00 46 1016.7
20260504015926 61 213 0.0 0.0 0.00 0.00 0.00 45 1016.7
20260504015426 61 212 0.0 0.0 0.00 0.00 0.00 45 1016.6
20260504014926 61 206 0.0 0.0 0.00 0.00 0.00 46 1016.6
20260504014425 61 212 0.0 0.0 0.00 0.00 0.00 46 1016.7
20260504013925 62 211 0.0 0.0 0.00 0.00 0.00 46 1016.7
20260504013425 62 212 0.0 0.0 0.00 0.00 0.00 46 1016.7
20260504012925 62 218 0.0 0.0 0.00 0.00 0.00 45 1016.7
20260504012424 62 218 0.0 0.0 0.00 0.00 0.00 44 1016.8
20260504011924 62 218 0.0 0.0 0.00 0.00 0.00 44 1016.7
20260504011424 62 211 0.0 0.0 0.00 0.00 0.00 43 1016.7
20260504010923 63 222 0.0 0.0 0.00 0.00 0.00 43 1016.8
20260504010423 63 180 0.0 0.0 0.00 0.00 0.00 42 1016.8
20260504005923 63 244 0.0 0.0 0.00 0.00 0.00 42 1016.9
20260504005423 63 275 0.0 0.0 0.00 0.00 0.00 42 1016.8
20260504004922 63 293 0.0 0.0 0.00 0.00 0.00 42 1016.8
20260504004422 63 295 0.0 0.0 0.00 0.00 0.00 42 1016.8
20260504003922 63 295 0.0 0.0 0.00 0.00 0.00 41 1016.7
20260504003421 64 207 0.0 0.0 0.00 0.00 0.00 41 1016.6
20260504002921 64 230 0.0 0.0 0.00 0.00 0.00 42 1016.6
20260504002421 64 233 0.0 0.0 0.00 0.00 0.00 41 1016.7
20260504001921 64 215 0.0 0.0 0.00 0.00 0.00 41 1016.6
20260504001420 64 225 0.0 0.0 0.00 0.00 0.00 41 1016.7
20260504000920 64 224 0.0 0.0 0.00 0.00 0.00 41 1016.6
20260504000420 64 208 0.0 0.0 0.00 0.00 0.00 41 1016.6
20260503235919 64 200 0.0 0.0 0.00 0.00 0.00 41 1016.6
20260503235419 64 210 0.0 0.0 0.00 0.00 0.00 41 1016.6
20260503234919 65 224 0.0 0.0 0.00 0.00 0.00 41 1016.6
20260503234419 65 191 0.0 0.0 0.00 0.00 0.00 40 1016.7
20260503233918 65 214 0.0 0.0 0.00 0.00 0.00 40 1016.7
20260503233418 65 186 0.0 0.0 0.00 0.00 0.00 41 1016.7
20260503232918 65 213 0.0 0.0 0.00 0.00 0.00 40 1016.7
20260503232418 65 161 0.0 0.0 0.00 0.00 0.00 41 1016.7
20260503231917 65 212 0.0 0.0 0.00 0.00 0.00 42 1016.7
20260503231417 65 210 0.0 0.0 0.00 0.00 0.00 42 1016.7
20260503230917 65 217 0.0 0.0 0.00 0.00 0.00 43 1016.7
20260503230416 65 218 0.0 0.0 0.00 0.00 0.00 43 1016.7
20260503225916 65 201 0.0 0.0 0.00 0.00 0.00 42 1016.7
20260503225416 65 199 0.0 0.0 0.00 0.00 0.00 42 1016.8
20260503224915 65 199 0.0 0.0 0.00 0.00 0.00 42 1016.7
20260503224415 65 191 0.0 0.0 0.00 0.00 0.00 42 1016.7
20260503223915 66 239 0.0 0.0 0.00 0.00 0.00 42 1016.6
20260503223415 66 208 0.0 0.0 0.00 0.00 0.00 41 1016.6
20260503222914 66 199 0.0 0.0 0.00 0.00 0.00 41 1016.6
20260503222414 66 198 0.0 0.0 0.00 0.00 0.00 42 1016.6
20260503221914 66 239 0.0 0.0 0.00 0.00 0.00 42 1016.5
20260503221413 66 216 0.0 0.0 0.00 0.00 0.00 42 1016.5
20260503220913 66 199 0.0 0.0 0.00 0.00 0.00 42 1016.5
20260503220413 66 237 0.0 0.0 0.00 0.00 0.00 42 1016.4
20260503215913 66 136 0.0 0.0 0.00 0.00 0.00 42 1016.4
20260503215412 66 201 0.0 0.0 0.00 0.00 0.00 42 1016.3
20260503214912 67 207 0.0 0.0 0.00 0.00 0.00 42 1016.4
20260503214412 67 213 0.0 0.0 0.00 0.00 0.00 42 1016.3
20260503213911 67 187 0.0 0.0 0.00 0.00 0.00 42 1016.4
20260503213411 67 206 0.0 0.0 0.00 0.00 0.00 42 1016.4
20260503212911 67 184 0.0 0.0 0.00 0.00 0.00 42 1016.3
20260503212411 67 215 0.0 0.0 0.00 0.00 0.00 42 1016.4
20260503211910 67 213 0.0 0.0 0.00 0.00 0.00 42 1016.4
20260503211410 67 207 0.0 0.0 0.00 0.00 0.00 42 1016.3
20260503210910 67 179 0.0 0.0 0.00 0.00 0.00 42 1016.3
20260503210409 67 224 0.0 0.0 0.00 0.00 0.00 42 1016.2
20260503205909 67 212 0.0 0.0 0.00 0.00 0.00 42 1016.2
20260503205409 67 173 0.0 0.0 0.00 0.00 0.00 42 1016.3
20260503204908 67 195 0.0 0.0 0.00 0.00 0.00 42 1016.2
20260503204408 67 198 0.0 0.0 0.00 0.00 0.00 42 1016.2
20260503203908 67 203 0.0 0.0 0.00 0.00 0.00 42 1016.2
20260503203408 68 185 0.0 0.0 0.00 0.00 0.00 41 1016.3
20260503202907 68 187 0.0 0.0 0.00 0.00 0.00 41 1016.3
20260503202407 68 214 0.0 0.0 0.00 0.00 0.00 41 1016.3
20260503201907 68 215 0.0 0.0 0.00 0.00 0.00 41 1016.4
20260503201406 68 214 0.0 0.0 0.00 0.00 0.00 41 1016.4
20260503200906 68 200 0.0 0.0 0.00 0.00 0.00 41 1016.2
20260503200406 68 195 0.0 0.0 0.00 0.00 0.00 41 1016.3
20260503195906 68 179 0.0 0.0 0.00 0.00 0.00 41 1016.3
20260503195405 68 232 0.0 0.0 0.00 0.00 0.00 41 1016.2
20260503194905 68 197 0.0 0.0 0.00 0.00 0.00 41 1016.2
20260503194405 68 214 0.0 0.0 0.00 0.00 0.00 42 1016.2
20260503193904 68 228 0.0 0.0 0.00 0.00 0.00 42 1016.2
20260503193404 67 216 0.0 0.0 0.00 0.00 0.00 43 1016.1
20260503192904 67 224 0.0 0.0 0.00 0.00 0.00 44 1016.1
20260503192404 67 223 0.0 0.0 0.00 0.00 0.00 45 1016.1
20260503191903 68 232 0.0 0.0 0.00 0.00 0.00 45 1016.1
20260503191403 68 191 0.0 0.0 0.00 0.00 0.00 46 1016.0
20260503190903 68 195 0.0 0.0 0.00 0.00 0.00 46 1015.9
20260503190403 69 193 0.0 0.0 0.00 0.00 0.00 45 1015.9
20260503185902 69 193 0.0 0.0 0.00 0.00 0.00 45 1015.8
20260503185402 69 193 0.0 0.0 0.00 0.00 0.00 45 1015.9
20260503184902 69 191 0.0 0.0 0.00 0.00 0.00 46 1015.8
20260503184401 69 102 0.0 0.0 0.00 0.00 0.00 49 1015.7
20260503183934 70 102 0.0 0.0 0.00 0.00 0.00 50 1015.8
20260503183901 70 102 0.0 0.0 0.00 0.00 0.00 50 1015.8
20260503183401 71 102 0.0 0.0 0.00 0.00 0.00 49 1015.8
20260503182901 71 73 0.0 0.0 0.00 0.00 0.00 46 1015.7
20260503182400 71 73 0.0 0.0 0.00 0.00 0.00 44 1015.7
20260503181900 72 73 0.0 0.0 0.00 0.00 0.00 44 1015.7
20260503181400 73 73 0.0 0.0 0.00 0.00 0.00 43 1015.6
20260503180859 73 73 0.0 0.0 0.00 0.00 0.00 42 1015.6
20260503180359 74 73 0.0 0.0 0.00 0.00 0.00 41 1015.6
20260503175859 74 73 0.0 0.0 0.00 0.00 0.00 39 1015.5
20260503175358 74 73 0.0 0.0 0.00 0.00 0.00 39 1015.5
20260503174858 75 73 0.0 0.0 0.00 0.00 0.00 38 1015.6
20260503174358 75 73 0.0 0.0 0.00 0.00 0.00 38 1015.6
20260503173858 75 77 0.0 0.0 0.00 0.00 0.00 38 1015.6
20260503173357 75 77 0.0 0.0 0.00 0.00 0.00 37 1015.6
20260503172857 76 58 0.0 0.0 0.00 0.00 0.00 36 1015.6
20260503172357 76 56 0.0 0.0 0.00 0.00 0.00 37 1015.6
20260503171856 76 56 0.0 0.0 0.00 0.00 0.00 36 1015.5
20260503171356 76 56 0.0 0.0 0.00 0.00 0.00 36 1015.5
20260503170856 76 75 0.0 0.0 0.00 0.00 0.00 36 1015.5
20260503170356 76 78 0.0 0.0 0.00 0.00 0.00 35 1015.6